BKPR

Priština International Airport

Prishtina, Kosovo
Issued Wind Visibility Ceiling Temperature Dew Point Humidity Barometer
Aug-23
11:30 UTC
340°
6 KTS
10,000+ meters   22° C
72° F
C
39° F
31% 30.12" Hg
1020 hPa
VFR
Aug-23
11:00 UTC
Varies @2 KTS 10,000+ meters   22° C
72° F
C
41° F
33% 30.12" Hg
1020 hPa
VFR
Aug-23
10:30 UTC
030°
9 KTS
10,000+ meters   21° C
70° F
C
41° F
35% 30.12" Hg
1020 hPa
VFR
Aug-23
10:00 UTC
Varies @3 KTS 10,000+ meters   21° C
70° F
C
41° F
35% 30.12" Hg
1020 hPa
VFR
Aug-23
09:30 UTC
060°
5 KTS
10,000+ meters   20° C
68° F
C
39° F
35% 30.12" Hg
1020 hPa
VFR
Aug-23
09:00 UTC
Varies @3 KTS 10,000+ meters   20° C
68° F
C
43° F
40% 30.12" Hg
1020 hPa
VFR
Aug-23
08:30 UTC
Varies @2 KTS 10,000+ meters   19° C
66° F
C
45° F
46% 30.12" Hg
1020 hPa
VFR
Aug-23
08:00 UTC
Varies @1 KTS 10,000+ meters   17° C
63° F
C
46° F
56% 30.12" Hg
1020 hPa
VFR
Aug-23
07:30 UTC
Varies @1 KTS 10,000+ meters   16° C
61° F
C
45° F
55% 30.12" Hg
1020 hPa
VFR
Aug-23
07:00 UTC
Varies @1 KTS 10,000+ meters   13° C
55° F
C
45° F
67% 30.12" Hg
1020 hPa
VFR
Aug-23
06:30 UTC
Varies @1 KTS 10,000+ meters   12° C
54° F
C
45° F
72% 30.12" Hg
1020 hPa
VFR
Aug-23
06:00 UTC
Varies @2 KTS 7,001 meters   11° C
52° F
C
43° F
72% 30.12" Hg
1020 hPa
MVFR
Aug-23
05:30 UTC
7,001 meters   10° C
50° F
C
43° F
76% 30.12" Hg
1020 hPa
MVFR
Aug-23
05:00 UTC
Varies @1 KTS 6,003 meters   C
46° F
C
41° F
82% 30.12" Hg
1020 hPa
MVFR
Aug-23
04:30 UTC
5,005 meters   C
45° F
C
39° F
81% 30.12" Hg
1020 hPa
MVFR
Aug-23
04:00 UTC
Varies @1 KTS 10,000+ meters   C
45° F
C
39° F
81% 30.12" Hg
1020 hPa
VFR
Aug-23
03:30 UTC
Varies @1 KTS 10,000+ meters   C
46° F
C
41° F
82% 30.09" Hg
1019 hPa
VFR
Aug-23
03:00 UTC
Varies @1 KTS 10,000+ meters   C
46° F
C
39° F
76% 30.09" Hg
1019 hPa
VFR
Aug-23
02:30 UTC
Varies @1 KTS 10,000+ meters   C
46° F
C
39° F
76% 30.09" Hg
1019 hPa
VFR
Aug-23
02:00 UTC
Varies @2 KTS 10,000+ meters   C
46° F
C
39° F
76% 30.09" Hg
1019 hPa
VFR
Aug-23
01:30 UTC
10,000+ meters   C
46° F
C
41° F
82% 30.09" Hg
1019 hPa
VFR
Aug-23
01:00 UTC
Varies @2 KTS 10,000+ meters   C
46° F
C
41° F
82% 30.09" Hg
1019 hPa
VFR
Aug-23
00:30 UTC
10,000+ meters   C
48° F
C
41° F
76% 30.09" Hg
1019 hPa
VFR
Aug-23
00:00 UTC
10,000+ meters   C
48° F
C
41° F
76% 30.09" Hg
1019 hPa
VFR
Aug-22
23:30 UTC
Varies @1 KTS 10,000+ meters   10° C
50° F
C
41° F
71% 30.09" Hg
1019 hPa
VFR
Aug-22
23:00 UTC
10,000+ meters   11° C
52° F
C
43° F
72% 30.09" Hg
1019 hPa
VFR
Aug-22
22:30 UTC
10,000+ meters   10° C
50° F
C
41° F
71% 30.09" Hg
1019 hPa
VFR
Aug-22
22:00 UTC
Varies @3 KTS 10,000+ meters   C
48° F
C
41° F
76% 30.09" Hg
1019 hPa
VFR
Aug-22
21:30 UTC
Varies @2 KTS 10,000+ meters   13° C
55° F
C
41° F
59% 30.09" Hg
1019 hPa
VFR
Aug-22
21:00 UTC
Varies @2 KTS 10,000+ meters   12° C
54° F
C
41° F
63% 30.09" Hg
1019 hPa
VFR
Aug-22
20:30 UTC
Varies @2 KTS 10,000+ meters   13° C
55° F
C
41° F
59% 30.09" Hg
1019 hPa
VFR
Aug-22
20:00 UTC
Varies @3 KTS 10,000+ meters   13° C
55° F
C
41° F
59% 30.09" Hg
1019 hPa
VFR
Aug-22
19:30 UTC
280°
4 KTS
10,000+ meters   13° C
55° F
C
41° F
59% 30.09" Hg
1019 hPa
VFR
Aug-22
19:00 UTC
Varies @3 KTS 10,000+ meters   14° C
57° F
C
41° F
55% 30.09" Hg
1019 hPa
VFR
Aug-22
18:30 UTC
270°
4 KTS
10,000+ meters   15° C
59° F
C
41° F
51% 30.06" Hg
1018 hPa
VFR
Aug-22
18:00 UTC
Varies @1 KTS 10,000+ meters   18° C
64° F
C
39° F
40% 30.06" Hg
1018 hPa
VFR
Aug-22
17:30 UTC
030°
6 KTS
10,000+ meters   18° C
64° F
C
39° F
40% 30.06" Hg
1018 hPa
VFR
Aug-22
17:00 UTC
040°
7 KTS
10,000+ meters   20° C
68° F
C
37° F
33% 30.06" Hg
1018 hPa
VFR
Aug-22
16:30 UTC
030°
9 KTS
10,000+ meters   20° C
68° F
C
37° F
33% 30.06" Hg
1018 hPa
VFR
Aug-22
16:00 UTC
030°
9 KTS
10,000+ meters   21° C
70° F
C
37° F
31% 30.06" Hg
1018 hPa
VFR
Aug-22
15:30 UTC
040°
9 KTS
10,000+ meters   22° C
72° F
C
41° F
33% 30.06" Hg
1018 hPa
VFR
Aug-22
15:00 UTC
040°
10 KTS
10,000+ meters   21° C
70° F
C
39° F
33% 30.06" Hg
1018 hPa
VFR
Aug-22
14:30 UTC
040°
12 KTS
10,000+ meters   22° C
72° F
C
39° F
31% 30.06" Hg
1018 hPa
VFR
Aug-22
14:00 UTC
030°
10 KTS
10,000+ meters   22° C
72° F
C
39° F
31% 30.06" Hg
1018 hPa
VFR
Aug-22
13:30 UTC
050°
9 KTS
10,000+ meters   22° C
72° F
C
39° F
31% 30.06" Hg
1018 hPa
VFR
Aug-22
13:00 UTC
020°
11 KTS
10,000+ meters Broken
6,000' AGL
22° C
72° F
C
37° F
29% 30.06" Hg
1018 hPa
VFR
Aug-22
12:30 UTC
040°
9 KTS
10,000+ meters Broken
6,000' AGL
21° C
70° F
C
37° F
31% 30.06" Hg
1018 hPa
VFR